Weather in Ust'-Nitsinskoye

Russia / Sverdlovsk Oblast     57°28′30″N   64°31′29″E
temp.,
°C
wind,
m/s
gust,
m/s
humid.,
%
clouds,
%
prec.,
mm/h
press.,
hPa
HPBL,
m
15 april, thu
thu1523:00+10w358849 0.0 102689
02:00+9w358845 0.0 102590
05:00+8wsw38915 0.0 1025126
08:00+11wsw39816 0.0 1023283
11:00+16wsw58585 0.0 1022711
14:00+19wsw685257 0.0 10201231
17:00+19wsw595040 0.0 10181511
20:00+14wsw395826 0.0 1017158
16 april, fri
fri1623:00+12w4136960 0.0 1016281
02:00+10nnw5985100 0.0 1017504
05:00+5n51087100 0.3 1021673
08:00+6n5869100 0.4 1023996
11:00+7n57455 0.4 10251449
14:00+8nne56365 0.0 10261760
17:00+8nne44345 0.0 10261792
20:00+5nne22495 0.0 102735
17 april, sat
sat1723:00+2ene22605 0.0 102729
02:00+1s22684 0.0 102634
05:000wsw23670 0.0 102644
08:00+4w35565 0.0 1026278
11:00+7wnw34445 0.0 10251210
14:00+9wnw453777 0.0 10231924
17:00+9wnw4640100 0.0 10221989
20:00+7wsw365579 0.0 1020128
18 april, sun
sun1823:00+5w41066100 0.0 1018257
02:00+3w51173100 0.0 1015566
05:00+2w6137899 0.0 1013587
08:00+4wnw71479100 0.1 10111265
11:00+2nnw101258100 0.3 10151690
14:00+1nne91342100 0.0 10211977
17:00+1n7103117 0.0 10252203
20:00−2n612425 0.0 10291760
19 april, mon
mon1923:00−4nne411495 0.0 10311683
02:00−5n410484 0.0 10321460
05:00−6n48495 0.0 10341339
08:00−4n5745100 0.0 10351634
11:00−2n5731100 0.0 10352126
14:00+1n5728100 0.0 10342439
17:00+1n5729100 0.0 10332316
20:00−2ne224630 0.0 103420